sat.trackr.live / text

‹ back to catalog

STARLINK-11324 [DTC]

NORAD 61879 · 2024-204F

PAYLOAD ACTIVE UNKNOWN

§ Identity

Operator
Country
US
Launch date
2024-11-09
Launch site
AFWTR
Launch vehicle
Mass (kg)
RCS (m²)

Purposes: comms

External: N2YO · Heavens-Above · Gunter

§ Orbital elements

Epoch: 2026-05-24T23:15:37.024128Z

Period
91.74 min
Inclination
53.1583°
Eccentricity
0.0000860
Mean motion
15.69710092 rev/d
Perigee alt
359.1 km
Apogee alt
360.3 km
Semi-major
6,737.9 km
B*
2.6871e-5
RAAN
340.3457°
Arg perigee
80.5119°
Mean anomaly
279.5996°
Rev number
8,889

§ Raw data

STARLINK-11324 [DTC]1 61879U 24204F   26144.96917852  .00002668  00000+0  26871-4 0  99962 61879  53.1583 340.3457 0000860  80.5119 279.5996 15.69710092 88892

JSON: /api/v1/satellites/61879 · /tle

For live sub-satellite position, see the globe view (requires WebGL).

§ Visibility from observer

Set your observer location to see the next 7 days of passes ≥ 10°. The values pass through the URL so the page stays shareable.

No JS? Fill the form by hand. The geolocation button needs JavaScript.